[[{"header":{"parameterUnit":"m.s-1","parameterCategory":1,"la1":30.2991,"la2":30.254,"lo1":-89.0895,"lo2":-89.0444,"dy":0.0017,"dx":0.0017,"nx":28,"ny":28,"refTime":"2025-04-20T21:00:00:Z","depth":0,"parameterNumber":2,"parameterNumberName":"U-component_of_WINDS"},"data":[0,0,0,0,0,0,0,0,0,0,0,0,0,0,0,0,0,0,0,0,0,0,0,0,0,0,0,0,0,0,0,0,0,0,0,0,0,0,0,0,0,0,0,0,0,0,0,0,0,0,0,0,0,0,0,0,0,0,-3.1868,-3.187,0,-3.2071,-3.2073,-3.2076,-3.2145,-3.2145,-3.2144,-3.2143,-3.2351,-3.2357,-3.2364,0,0,0,0,0,0,0,0,0,0,0,0,0,-3.1542,-3.1547,-3.1868,-3.187,-3.1873,-3.2071,-3.2073,-3.2076,-3.2145,-3.2144,-3.2144,-3.2143,-3.2349,-3.2357,-3.2364,0,0,0,0,0,0,0,0,0,0,0,0,0,-3.1708,-3.1549,-3.1867,-3.1931,-3.1939,-3.207,-3.2074,-3.2077,-3.2146,-3.2144,-3.2143,-3.2142,-3.2347,-3.2356,-3.2365,-3.2447,0,0,-3.2394,-3.2398,0,0,0,0,0,0,0,0,-3.1698,-3.172,-3.1919,-3.1927,-3.1936,-3.2082,-3.2035,-3.2201,-3.2146,-3.2067,-3.2143,-3.2142,-3.2262,-3.2279,-3.232,-3.2457,-3.2466,-3.2395,-3.2401,-3.2405,-3.2407,0,0,0,0,0,0,0,-3.1687,-3.1712,-3.1948,-3.1922,-3.1932,-3.195,-3.1973,-3.2067,-3.2169,-3.2074,-3.208,-3.2103,-3.2267,-3.231,-3.2325,-3.2469,-3.2395,-3.2403,-3.2409,-3.2412,-3.2686,-3.2687,0,0,0,0,0,0,-3.1664,-3.1701,-3.1942,-3.1954,-3.1812,-3.1957,-3.1982,-3.2036,-3.2168,-3.2187,-3.2103,-3.2105,-3.2295,-3.2314,-3.2332,-3.2438,-3.2404,-3.2413,-3.2419,-3.2684,-3.2686,-3.2688,0,0,0,0,0,0,-3.1657,-3.1685,-3.1934,-3.183,-3.1863,-3.1964,-3.2024,-3.2041,-3.2084,-3.2191,-3.2209,-3.2129,-3.2295,-3.2319,-3.2419,-3.2446,-3.2418,-3.2426,-3.2682,-3.2685,-3.2687,-3.2648,0,0,0,0,0,0,-3.1648,-3.1682,-3.1714,-3.183,-3.1868,-3.2016,-3.2026,-3.2046,-3.21,-3.2104,-3.2219,-3.2237,-3.2295,-3.2404,-3.2428,-3.2458,-3.2434,-3.268,-3.2683,-3.2686,-3.2647,-3.2649,-3.265,0,0,0,0,0,-3.1636,-3.1695,-3.1715,-3.1744,-3.191,-3.2017,-3.2039,-3.2104,-3.2102,-3.2135,-3.2204,-3.2234,-3.2439,-3.2414,-3.2441,-3.2475,-3.2679,-3.2682,-3.2686,-3.2647,-3.2649,-3.265,0,0,0,0,0,0,-3.158,-3.1711,-3.1735,-3.1834,-3.1914,-3.2028,-3.2072,-3.2104,-3.2187,-3.2187,-3.2265,-3.2291,-3.2384,-3.244,-3.2409,-3.2562,-3.2561,-3.257,-3.2522,-3.2524,-3.2526,-3.251,-3.2441,0,0,0,0,0,-3.1579,-3.1655,-3.1766,-3.1842,-3.1881,-3.1969,-3.2019,-3.2063,-3.2149,-3.2183,-3.2259,-3.2341,-3.2425,-3.2478,-3.2561,-3.2657,-3.2683,-3.2693,-3.2695,-3.2695,-3.2702,-3.2757,-3.2763,-3.27,-3.27,-3.2699,0,0,-3.1578,-3.1659,-3.1702,-3.1833,-3.19,-3.1977,-3.1997,-3.2078,-3.2136,-3.2195,-3.2293,-3.2352,-3.245,-3.2547,-3.2595,-3.2597,-3.2726,-3.27,-3.27,-3.2706,-3.2762,-3.2768,-3.2773,-3.2702,-3.2702,-3.2701,0,0,-3.1615,-3.1684,-3.1755,-3.1822,-3.1924,-3.1982,-3.1999,-3.211,-3.2151,-3.2251,-3.2297,-3.2368,-3.251,-3.2578,-3.2631,-3.2695,-3.2726,-3.272,-3.2727,-3.278,-3.2785,-3.279,-3.2812,-3.282,-3.2727,-3.2727,-3.2727,0,-3.16,-3.1718,-3.1788,-3.1866,-3.1922,-3.198,-3.2053,-3.2115,-3.2238,-3.2276,-3.2277,-3.2457,-3.2526,-3.2641,-3.2657,-3.2698,-3.272,-3.2706,-3.2778,-3.2784,-3.279,-3.2812,-3.282,-3.2725,-3.2725,-3.2726,-3.2726,0,-3.1695,-3.1776,-3.1822,-3.1939,-3.2001,-3.2076,-3.2158,-3.2212,-3.2251,-3.231,-3.2411,-3.2497,-3.2598,-3.2629,-3.2668,-3.275,-3.2748,-3.2763,-3.2763,-3.2793,-3.2815,-3.2825,-3.2723,-3.2724,-3.2724,-3.2724,0,0,-3.1701,-3.1857,-3.1872,-3.1927,-3.2043,-3.2108,-3.2186,-3.2285,-3.233,-3.2414,-3.2482,-3.2601,-3.2616,-3.2676,-3.2723,-3.277,-3.2815,-3.2779,-3.2783,-3.2782,-3.2911,-3.2898,-3.2907,-3.2837,-3.2839,-3.284,-3.2902,0,-3.1753,-3.1894,-3.196,-3.2073,-3.2149,-3.2205,-3.2274,-3.2353,-3.2411,-3.2484,-3.2548,-3.2631,-3.2644,-3.2681,-3.273,-3.2799,-3.2842,-3.2796,-3.2901,-3.2903,-3.2873,-3.2919,-3.2906,-3.296,-3.2912,-3.2913,-3.2914,0,-3.1832,-3.1915,-3.2035,-3.2143,-3.2178,-3.2238,-3.2334,-3.2404,-3.2495,-3.2534,-3.2602,-3.2648,-3.2733,-3.2728,-3.2847,-3.2814,-3.2862,-3.2902,-3.2906,-3.2917,-3.291,-3.293,-3.2979,-3.2987,-3.2929,-3.2928,-3.2927,0,-3.1823,-3.1965,-3.2056,-3.2101,-3.223,-3.2271,-3.2326,-3.2417,-3.2472,-3.2557,-3.2594,-3.2688,-3.2739,-3.2811,-3.2881,-3.2871,-3.2993,-3.2994,-3.3027,-3.3026,-3.3049,-3.3047,-3.3105,-3.3081,-3.3081,-3.3081,-3.3081,0,-3.1873,-3.1944,-3.2054,-3.2109,-3.2191,-3.2266,-3.2345,-3.2405,-3.2486,-3.2554,-3.261,-3.2673,-3.2762,-3.2837,-3.2893,-3.2983,-3.3006,-3.3039,-3.3053,-3.3034,-3.3029,-3.3065,-3.3063,-3.3083,-3.3083,-3.3082,-3.3082,0,-3.1876,-3.1953,-3.2055,-3.2169,-3.2199,-3.2254,-3.2352,-3.2409,-3.247,-3.2556,-3.258,-3.2676,-3.2767,-3.2845,-3.2965,-3.3002,-3.3095,-3.3112,-3.3064,-3.3071,-3.31,-3.3095,-3.3182,-3.3197,-3.3163,-3.3163,-3.3164,0,-3.1903,-3.1959,-3.2079,-3.2129,-3.2183,-3.2263,-3.232,-3.2397,-3.2454,-3.2564,-3.2607,-3.2702,-3.2782,-3.2925,-3.3006,-3.3098,-3.3117,-3.3141,-3.3132,-3.3111,-3.3117,-3.3112,-3.3119,-3.3141,-3.3141,-3.3141,-3.3141,0,-3.1942,-3.1977,-3.2057,-3.215,-3.2216,-3.2294,-3.2373,-3.2411,-3.2503,-3.2564,-3.2658,-3.272,-3.2843,-3.2937,-3.3038,-3.3097,-3.3134,-3.3144,-3.3157,-3.3137,-3.3106,-3.3123,-3.3064,-3.3141,-3.3141,-3.3141,-3.3141,-3.3141,-3.1957,-3.201,-3.2102,-3.219,-3.2257,-3.233,-3.2389,-3.2457,-3.2536,-3.2642,-3.2683,-3.2779,-3.2871,-3.301,-3.3069,-3.3146,-3.3151,-3.3169,-3.3174,-3.3177,-3.3174,-3.3095,-3.3165,-3.3165,-3.3165,-3.3165,-3.3165,0,-3.1998,-3.2061,-3.2141,-3.2249,-3.2318,-3.2348,-3.2437,-3.2493,-3.2576,-3.2659,-3.2736,-3.2844,-3.2936,-3.3024,-3.312,-3.3165,-3.3185,-3.3187,-3.3184,-3.3197,-3.3163,-3.3143,-3.317,-3.317,-3.317,-3.317,-3.317,-3.317,-3.2028,-3.2118,-3.2164,-3.2289,-3.2352,-3.2445,-3.2494,-3.2562,-3.2628,-3.2745,-3.2822,-3.2878,-3.2964,-3.3067,-3.3152,-3.3176,-3.3209,-3.3207,-3.3235,-3.3201,-3.32,-3.3198,-3.3179,-3.3213,-3.3213,-3.3263,-3.3263,-3.3263]},{"header":{"parameterUnit":"m.s-1","parameterCategory":1,"la1":30.2991,"la2":30.254,"lo1":-89.0895,"lo2":-89.0444,"dy":0.0017,"dx":0.0017,"nx":28,"ny":28,"refTime":"2025-04-20T21:00:00:Z","depth":0,"parameterNumber":3,"parameterNumberName":"V-component_of_WINDS"},"data":[0,0,0,0,0,0,0,0,0,0,0,0,0,0,0,0,0,0,0,0,0,0,0,0,0,0,0,0,0,0,0,0,0,0,0,0,0,0,0,0,0,0,0,0,0,0,0,0,0,0,0,0,0,0,0,0,0,0,5.5703,5.5704,0,5.5842,5.5844,5.5845,5.5841,5.5839,5.5837,5.5835,5.5972,5.5978,5.5983,0,0,0,0,0,0,0,0,0,0,0,0,0,5.5429,5.5434,5.5703,5.5704,5.5706,5.5842,5.5844,5.5846,5.5841,5.5839,5.5836,5.5834,5.5971,5.5977,5.5983,0,0,0,0,0,0,0,0,0,0,0,0,0,5.5556,5.5435,5.5702,5.572,5.5723,5.5841,5.5844,5.5846,5.5841,5.5838,5.5836,5.5833,5.5968,5.5976,5.5984,5.6092,0,0,5.6009,5.6013,0,0,0,0,0,0,0,0,5.5548,5.5566,5.5716,5.5719,5.5723,5.5821,5.5798,5.5928,5.5842,5.5796,5.5835,5.5832,5.5924,5.5936,5.5968,5.6099,5.6105,5.601,5.6015,5.6018,5.6021,0,0,0,0,0,0,0,5.554,5.556,5.5758,5.5718,5.5722,5.572,5.5735,5.5822,5.5874,5.58,5.58,5.5817,5.5925,5.596,5.5971,5.6107,5.601,5.6017,5.6022,5.6025,5.6334,5.6337,0,0,0,0,0,0,5.5528,5.5552,5.5753,5.5762,5.5627,5.5727,5.5744,5.5792,5.5873,5.5883,5.5819,5.5816,5.5947,5.5962,5.5976,5.6108,5.6018,5.6026,5.6031,5.6331,5.6335,5.6338,0,0,0,0,0,0,5.5522,5.5546,5.5748,5.5657,5.5683,5.5735,5.579,5.5797,5.5831,5.5888,5.5897,5.5846,5.5946,5.5964,5.6064,5.6113,5.603,5.6037,5.6327,5.6332,5.6337,5.6374,0,0,0,0,0,0,5.5514,5.5544,5.5586,5.5658,5.5688,5.5835,5.5793,5.5801,5.5846,5.5844,5.5915,5.5924,5.5945,5.6052,5.6072,5.6123,5.6044,5.6323,5.6329,5.6335,5.6368,5.6379,5.6389,0,0,0,0,0,5.5504,5.5589,5.5588,5.5612,5.5742,5.5838,5.5854,5.5878,5.585,5.5893,5.5929,5.5922,5.6105,5.6062,5.6085,5.6139,5.632,5.6327,5.6335,5.6364,5.6377,5.6388,0,0,0,0,0,0,5.5519,5.5599,5.5599,5.571,5.5767,5.5837,5.5891,5.5891,5.5956,5.5951,5.5976,5.5992,5.6092,5.6125,5.6077,5.6248,5.6208,5.6221,5.6223,5.6236,5.6246,5.6236,5.605,0,0,0,0,0,5.5536,5.5608,5.5674,5.5765,5.5795,5.5838,5.588,5.5894,5.5954,5.5977,5.6021,5.6078,5.6148,5.6194,5.6262,5.6373,5.6389,5.6421,5.6432,5.644,5.645,5.6512,5.6528,5.6363,5.6363,5.6363,0,0,5.557,5.5623,5.5666,5.577,5.5816,5.5889,5.5858,5.5937,5.5991,5.5989,5.6086,5.612,5.6185,5.6292,5.6341,5.6322,5.6499,5.6449,5.6455,5.6461,5.6521,5.6537,5.6551,5.6368,5.6367,5.6366,0,0,5.567,5.5718,5.58,5.5848,5.5918,5.5947,5.5967,5.6037,5.606,5.6159,5.6159,5.6223,5.6344,5.6391,5.643,5.655,5.6546,5.6571,5.6624,5.6685,5.6698,5.6709,5.6753,5.6768,5.6581,5.6582,5.6582,0,5.5703,5.5816,5.5842,5.5922,5.5967,5.5971,5.6054,5.6098,5.6187,5.6218,5.6196,5.6349,5.6393,5.6511,5.654,5.6572,5.6595,5.6563,5.6694,5.6706,5.6717,5.6759,5.6775,5.6584,5.6584,5.6584,5.6583,0,5.5853,5.5931,5.5989,5.6077,5.6129,5.621,5.6247,5.6297,5.6306,5.6337,5.6438,5.6491,5.657,5.6599,5.6608,5.6719,5.6705,5.6689,5.665,5.6735,5.6775,5.6791,5.6588,5.6587,5.6586,5.6586,0,0,5.5966,5.6069,5.609,5.613,5.621,5.6269,5.6351,5.643,5.6472,5.6533,5.6602,5.6705,5.6691,5.6736,5.675,5.6803,5.6896,5.6781,5.6782,5.68,5.7021,5.7033,5.7051,5.6894,5.6897,5.6899,5.7016,0,5.6074,5.6221,5.6247,5.6374,5.6446,5.6452,5.6522,5.6578,5.6609,5.6674,5.6707,5.678,5.6756,5.6784,5.6836,5.6873,5.694,5.6865,5.6957,5.696,5.694,5.7072,5.7085,5.7192,5.7032,5.7034,5.7036,0,5.6221,5.6288,5.6423,5.6494,5.6525,5.6589,5.6664,5.6727,5.679,5.6809,5.686,5.6869,5.6953,5.6911,5.7026,5.6974,5.7014,5.7037,5.7042,5.7051,5.7003,5.7085,5.7227,5.7243,5.706,5.7059,5.7057,0,5.629,5.6414,5.6511,5.6546,5.6631,5.6675,5.6713,5.6773,5.682,5.6886,5.6916,5.699,5.703,5.7087,5.7115,5.7082,5.7229,5.7189,5.7246,5.7246,5.7277,5.7274,5.7427,5.7302,5.7302,5.7301,5.7301,0,5.6408,5.6491,5.6544,5.6603,5.6696,5.6725,5.6815,5.6852,5.6906,5.6972,5.698,5.7042,5.7076,5.7142,5.7165,5.7258,5.7275,5.7292,5.7297,5.7292,5.729,5.7318,5.7311,5.7306,5.7305,5.7304,5.7303,0,5.6501,5.654,5.6646,5.6719,5.6739,5.6804,5.6866,5.6923,5.6955,5.7039,5.706,5.7109,5.7188,5.7222,5.7318,5.7334,5.744,5.7439,5.7419,5.7421,5.7477,5.7471,5.7653,5.7679,5.7536,5.7537,5.7538,0,5.6574,5.6638,5.6718,5.6764,5.6804,5.6877,5.6925,5.6957,5.7006,5.7084,5.7133,5.7212,5.7278,5.7403,5.7446,5.752,5.7522,5.758,5.7533,5.7526,5.7523,5.7519,5.7526,5.7589,5.759,5.7591,5.7592,0,5.67,5.6717,5.6787,5.6865,5.6923,5.6985,5.7045,5.7082,5.7123,5.7178,5.726,5.7311,5.7411,5.7489,5.7566,5.7603,5.7605,5.7607,5.7625,5.762,5.7606,5.7615,5.7443,5.7603,5.7602,5.7601,5.76,5.76,5.6785,5.6843,5.6909,5.6987,5.7037,5.7094,5.7152,5.7192,5.7261,5.7347,5.736,5.7448,5.751,5.7614,5.7654,5.7723,5.7708,5.7733,5.7739,5.7745,5.7749,5.7595,5.7736,5.7736,5.7736,5.7736,5.7736,0,5.6912,5.6956,5.7028,5.7113,5.7175,5.7173,5.724,5.7292,5.7369,5.7428,5.7493,5.7587,5.7664,5.7715,5.7792,5.7837,5.784,5.7856,5.7853,5.7862,5.7757,5.7735,5.7853,5.7853,5.7853,5.7853,5.7853,5.7853,5.6986,5.7083,5.7108,5.723,5.7272,5.736,5.7399,5.7451,5.7498,5.7604,5.7669,5.7702,5.7757,5.7839,5.791,5.7922,5.7951,5.7968,5.798,5.7881,5.7869,5.7857,5.7836,5.7974,5.7974,5.8079,5.808,5.8081]}]]